Location: Buckland
(65.9785°N, 161.1281°W)
Time: 04:50:45
(UTC+00:00)

Transit 4A - Pass Details

Date: 05 December 2020
Orbit: 864 x 980 km, 66.8° (Epoch: 26 January)

Event Time Altitude Azimuth Distance (km) Brightness Sun altitude
Rises 20:55:32 0° 261° (W) 3,682 10.9 -0.5°
Reaches altitude 10° 20:58:06 10° 262° (W) 2,739 10.2 -0.4°
Maximum altitude 21:04:34 85° 351° (N) 993 8.1 -0.2°
Drops below altitude 10° 21:10:59 10° 81° (E) 2,721 10.5 0.1°
Sets 21:13:32 0° 82° (E) 3,657 11.2 0.2°
